Torna al catalogo

NEIJIANG GAOXIN

AttivoScienzaSSO
NORAD 63985·PAYLOAD·🇨🇳 China
Questo nome del satellite non è ancora stato confermato da fonti ufficiali.

Lanciato May 14, 2025 da Jiuquan Satellite Launch Center

Loading…

Prossimi Passaggi (prossime 24 ore)

TLE

AggiornatoSource: Space-Track

Epoca: Sep 14, 2026, 22:29 UTC

1 63985U 25100D   26257.93740611  .00016127  00000-0  63849-3 0  9992
2 63985  97.3595 333.0509 0005351 345.6466  14.4620 15.25500874 74557

Traccia NEIJIANG GAOXIN in tempo reale con AllMySat

Download on the App Store